[[{"header":{"parameterUnit":"m.s-1","parameterCategory":2,"la1":30.2991,"la2":30.254,"lo1":-89.0895,"lo2":-89.0444,"dy":0.0017,"dx":0.0017,"nx":28,"ny":28,"refTime":"2024-10-19T03:00:00:Z","depth":"0","parameterNumber":2,"parameterNumberName":"U-component_of_CURRENTS"},"data":[0,0,0,0,0,0,0,0,0,0,0,0,0,0,0,0,0,0,0,0,0,0,0,0,0,0,0,0,0,0,0,0,0,0,0,0,0,0,0,0,0,0,0,0,0,0,0,0,0,0,0,0,0,0,0,0,0,0,0.2321,0.2321,0,0.233,0.233,0.233,0.2321,0.2321,0.2321,0.2321,0.2297,0.2297,0.2296,0,0,0,0,0,0,0,0,0,0,0,0,0,0.2306,0.2306,0.2321,0.2321,0.2322,0.233,0.233,0.233,0.2321,0.2321,0.2321,0.2321,0.2297,0.2297,0.2296,0,0,0,0,0,0,0,0,0,0,0,0,0,0.2311,0.2306,0.2321,0.232,0.232,0.233,0.233,0.233,0.2321,0.2321,0.2321,0.2321,0.2298,0.2297,0.2296,0.2296,0,0,0.2294,0.2294,0,0,0,0,0,0,0,0,0.2311,0.2311,0.232,0.232,0.232,0.2326,0.2316,0.2318,0.2321,0.2318,0.2321,0.2321,0.2306,0.2304,0.2304,0.2294,0.2293,0.2294,0.2293,0.2293,0.2293,0,0,0,0,0,0,0,0.231,0.2311,0.2322,0.232,0.2321,0.2323,0.2323,0.2316,0.2311,0.2319,0.2319,0.2324,0.2305,0.2304,0.2303,0.2293,0.2294,0.2293,0.2293,0.2292,0.2321,0.2322,0,0,0,0,0,0,0.2314,0.2311,0.2322,0.2323,0.2318,0.2323,0.2323,0.2323,0.2311,0.231,0.2324,0.2323,0.2306,0.2304,0.2302,0.2336,0.2293,0.2292,0.2292,0.232,0.2321,0.2322,0,0,0,0,0,0,0.2313,0.2314,0.2322,0.2319,0.232,0.2324,0.2323,0.2323,0.2326,0.2316,0.2314,0.2328,0.2305,0.2303,0.2308,0.2334,0.2292,0.2291,0.2318,0.232,0.2322,0.2382,0,0,0,0,0,0,0.2313,0.2314,0.2313,0.2319,0.2321,0.2335,0.2324,0.2324,0.2331,0.233,0.2319,0.2316,0.2305,0.231,0.2308,0.2332,0.2291,0.2317,0.2319,0.2321,0.2379,0.2386,0.2392,0,0,0,0,0,0.2312,0.2313,0.2312,0.2314,0.2319,0.2336,0.2337,0.2337,0.2331,0.2337,0.2333,0.2317,0.2323,0.231,0.2307,0.2332,0.2316,0.2318,0.2321,0.2376,0.2384,0.2392,0,0,0,0,0,0,0.2301,0.2313,0.2312,0.2315,0.2328,0.2335,0.2341,0.2341,0.2343,0.2341,0.2327,0.2325,0.2341,0.2327,0.2314,0.2348,0.2319,0.2321,0.2361,0.2369,0.2376,0.2392,0.229,0,0,0,0,0,0.23,0.2306,0.2318,0.2321,0.233,0.2336,0.2341,0.2345,0.2349,0.2349,0.2343,0.2341,0.235,0.2351,0.2351,0.2365,0.2376,0.2381,0.2388,0.2394,0.2407,0.2449,0.2461,0.2331,0.2331,0.2331,0,0,0.2295,0.2304,0.2306,0.232,0.2329,0.2349,0.2338,0.2354,0.2372,0.2346,0.2363,0.2361,0.2359,0.238,0.2386,0.2371,0.2437,0.2397,0.2402,0.2412,0.2453,0.2466,0.2478,0.2333,0.2333,0.2333,0,0,0.2299,0.23,0.2311,0.2327,0.2348,0.2358,0.2365,0.2378,0.2386,0.2401,0.2397,0.2416,0.241,0.2429,0.2434,0.2478,0.2471,0.2472,0.252,0.2562,0.2573,0.2583,0.2618,0.263,0.2476,0.2477,0.2477,0,0.2295,0.2308,0.2317,0.2338,0.2354,0.2365,0.2387,0.2402,0.2415,0.2433,0.2413,0.2446,0.2441,0.249,0.2507,0.2495,0.2512,0.2489,0.2571,0.2581,0.2591,0.2624,0.2637,0.248,0.2479,0.2479,0.2479,0,0.231,0.2324,0.2335,0.2366,0.2385,0.2406,0.2433,0.2454,0.2462,0.2479,0.252,0.2521,0.2543,0.2548,0.2539,0.2608,0.2596,0.2575,0.2552,0.2608,0.2639,0.2652,0.2484,0.2483,0.2482,0.2481,0,0,0.2291,0.2336,0.2339,0.2361,0.2402,0.242,0.2464,0.2509,0.2544,0.256,0.2606,0.2632,0.2637,0.2645,0.2644,0.2681,0.276,0.2659,0.2659,0.2696,0.2853,0.2814,0.2823,0.2752,0.2754,0.2756,0.2851,0,0.23,0.2338,0.2362,0.2405,0.2428,0.2464,0.2504,0.2549,0.258,0.2628,0.2658,0.2693,0.2673,0.2687,0.2727,0.2752,0.2796,0.2737,0.2792,0.2794,0.2754,0.2838,0.2769,0.2845,0.2863,0.2865,0.2866,0,0.2304,0.2333,0.237,0.2431,0.2445,0.2475,0.2546,0.2584,0.2662,0.2689,0.2741,0.2758,0.2828,0.279,0.288,0.2842,0.2859,0.2873,0.2876,0.2828,0.2778,0.2791,0.2867,0.2838,0.2886,0.2884,0.2883,0,0.2281,0.2338,0.2366,0.2385,0.2455,0.2485,0.2526,0.2601,0.2641,0.2732,0.2771,0.2845,0.2884,0.2926,0.2955,0.2925,0.3046,0.3003,0.2988,0.2985,0.2933,0.2921,0.2989,0.3074,0.3074,0.3074,0.3073,0,0.2277,0.2301,0.2358,0.2374,0.2412,0.2474,0.2523,0.2581,0.2669,0.2719,0.2797,0.2848,0.292,0.2985,0.2999,0.3044,0.3085,0.3024,0.3018,0.2951,0.294,0.2914,0.2878,0.3077,0.3076,0.3076,0.3075,0,0.224,0.2278,0.231,0.2379,0.2396,0.2423,0.25,0.2545,0.2641,0.2711,0.2743,0.2875,0.2962,0.3027,0.3108,0.3099,0.3069,0.3139,0.3054,0.3036,0.2966,0.2934,0.2875,0.2768,0.3143,0.3142,0.3142,0,0.2222,0.2235,0.2287,0.2299,0.2326,0.2371,0.2404,0.2506,0.2558,0.2709,0.2746,0.2875,0.2945,0.3077,0.3108,0.316,0.3062,0.3101,0.3027,0.2981,0.2943,0.2821,0.2725,0.2989,0.2987,0.2986,0.2985,0,0.2185,0.22,0.2225,0.2243,0.2271,0.2297,0.2359,0.2391,0.2513,0.2592,0.2705,0.2784,0.2942,0.2988,0.3073,0.3082,0.2972,0.3075,0.3061,0.2866,0.2706,0.2593,0.2904,0.2974,0.2975,0.2976,0.2977,0.2977,0.2147,0.2143,0.2167,0.2183,0.2206,0.2217,0.2212,0.2295,0.2356,0.2455,0.2589,0.269,0.2855,0.2979,0.2972,0.2968,0.2896,0.2904,0.2885,0.2777,0.2625,0.2909,0.2943,0.2944,0.2945,0.2946,0.2946,0,0.2089,0.2096,0.2109,0.2112,0.2102,0.214,0.2174,0.216,0.2191,0.2337,0.2424,0.2605,0.27,0.2815,0.2907,0.2825,0.2673,0.275,0.2587,0.2507,0.2819,0.2766,0.2722,0.2722,0.2722,0.2722,0.2722,0.2722,0.2058,0.2042,0.2048,0.2004,0.2005,0.1947,0.1941,0.1945,0.202,0.2112,0.2231,0.2362,0.2653,0.2877,0.2871,0.2773,0.2544,0.2446,0.2388,0.2666,0.2679,0.2691,0.2636,0.2566,0.2566,0.199,0.1986,0.1983]},{"header":{"parameterUnit":"m.s-1","parameterCategory":2,"la1":30.2991,"la2":30.254,"lo1":-89.0895,"lo2":-89.0444,"dy":0.0017,"dx":0.0017,"nx":28,"ny":28,"refTime":"2024-10-19T03:00:00:Z","depth":"0","parameterNumber":3,"parameterNumberName":"V-component_of_CURRENTS"},"data":[0,0,0,0,0,0,0,0,0,0,0,0,0,0,0,0,0,0,0,0,0,0,0,0,0,0,0,0,0,0,0,0,0,0,0,0,0,0,0,0,0,0,0,0,0,0,0,0,0,0,0,0,0,0,0,0,0,0,-0.025,-0.0251,0,-0.0319,-0.0319,-0.032,-0.0358,-0.0358,-0.0358,-0.0358,-0.0412,-0.0413,-0.0415,0,0,0,0,0,0,0,0,0,0,0,0,0,-0.0182,-0.0183,-0.025,-0.0251,-0.0251,-0.0318,-0.0319,-0.032,-0.0358,-0.0358,-0.0358,-0.0358,-0.0411,-0.0413,-0.0415,0,0,0,0,0,0,0,0,0,0,0,0,0,-0.0228,-0.0183,-0.025,-0.0278,-0.0281,-0.0318,-0.032,-0.0321,-0.0358,-0.0358,-0.0358,-0.0358,-0.0411,-0.0413,-0.0415,-0.0427,0,0,-0.0421,-0.0422,0,0,0,0,0,0,0,0,-0.0225,-0.023,-0.0273,-0.0276,-0.0279,-0.0329,-0.0316,-0.0355,-0.0358,-0.0329,-0.0358,-0.0358,-0.0382,-0.0387,-0.0401,-0.0429,-0.0432,-0.0422,-0.0423,-0.0424,-0.0424,0,0,0,0,0,0,0,-0.0222,-0.0228,-0.0278,-0.0273,-0.0278,-0.0298,-0.0304,-0.0324,-0.0355,-0.0331,-0.0334,-0.0341,-0.0384,-0.0399,-0.0402,-0.0432,-0.0421,-0.0423,-0.0425,-0.0425,-0.047,-0.047,0,0,0,0,0,0,-0.0211,-0.0225,-0.0275,-0.028,-0.0251,-0.0298,-0.0306,-0.0314,-0.0355,-0.0361,-0.0341,-0.0342,-0.0395,-0.04,-0.0404,-0.0413,-0.0424,-0.0426,-0.0427,-0.047,-0.047,-0.047,0,0,0,0,0,0,-0.0209,-0.0215,-0.0273,-0.0253,-0.0262,-0.0299,-0.0308,-0.0315,-0.0326,-0.0362,-0.0368,-0.0344,-0.0395,-0.0401,-0.0416,-0.0415,-0.0427,-0.0429,-0.047,-0.047,-0.047,-0.0435,0,0,0,0,0,0,-0.0207,-0.0214,-0.0213,-0.0252,-0.0262,-0.0286,-0.0308,-0.0316,-0.033,-0.0333,-0.0367,-0.0373,-0.0396,-0.0413,-0.0418,-0.0418,-0.043,-0.047,-0.047,-0.047,-0.0436,-0.0434,-0.0431,0,0,0,0,0,-0.0204,-0.0202,-0.0213,-0.0219,-0.0262,-0.0286,-0.0292,-0.032,-0.033,-0.0331,-0.0355,-0.0371,-0.0416,-0.0414,-0.0421,-0.0422,-0.047,-0.047,-0.047,-0.0437,-0.0434,-0.0431,0,0,0,0,0,0,-0.0172,-0.0206,-0.0219,-0.0227,-0.0251,-0.0291,-0.0295,-0.0314,-0.0336,-0.0336,-0.037,-0.0377,-0.039,-0.0409,-0.0407,-0.0434,-0.0446,-0.0447,-0.0419,-0.0416,-0.0414,-0.0398,-0.0432,0,0,0,0,0,-0.0164,-0.0171,-0.0207,-0.0212,-0.0221,-0.0256,-0.0269,-0.0287,-0.0313,-0.0323,-0.0348,-0.0373,-0.0396,-0.0407,-0.0428,-0.0442,-0.0458,-0.0447,-0.0444,-0.0442,-0.0434,-0.0466,-0.0466,-0.0469,-0.0469,-0.0469,0,0,-0.0153,-0.0172,-0.0177,-0.0205,-0.0225,-0.0232,-0.0264,-0.0277,-0.0284,-0.0324,-0.0336,-0.0364,-0.0397,-0.0413,-0.0421,-0.0428,-0.0448,-0.0442,-0.044,-0.0433,-0.0466,-0.0466,-0.0466,-0.0469,-0.0469,-0.0469,0,0,-0.013,-0.015,-0.0147,-0.0163,-0.0188,-0.0211,-0.0211,-0.0247,-0.0262,-0.0279,-0.0311,-0.0335,-0.0367,-0.0395,-0.0412,-0.0408,-0.0434,-0.0416,-0.0393,-0.0425,-0.0425,-0.0425,-0.0437,-0.0439,-0.0416,-0.0416,-0.0416,0,-0.0115,-0.0118,-0.0148,-0.0148,-0.0155,-0.0196,-0.019,-0.0214,-0.0251,-0.0258,-0.0274,-0.0328,-0.0359,-0.0383,-0.0386,-0.0402,-0.0418,-0.0401,-0.0422,-0.0422,-0.0423,-0.0435,-0.0438,-0.0414,-0.0415,-0.0415,-0.0415,0,-0.0092,-0.0093,-0.0091,-0.0104,-0.0114,-0.0117,-0.015,-0.0162,-0.0185,-0.0212,-0.0238,-0.0287,-0.0316,-0.0337,-0.0362,-0.0384,-0.0391,-0.0414,-0.0427,-0.0421,-0.0434,-0.0437,-0.0412,-0.0413,-0.0413,-0.0414,0,0,-0.0057,-0.0071,-0.0069,-0.0062,-0.0089,-0.0091,-0.0101,-0.012,-0.0117,-0.0166,-0.017,-0.023,-0.0258,-0.028,-0.0321,-0.0356,-0.038,-0.0385,-0.0387,-0.0392,-0.0436,-0.0428,-0.0431,-0.0409,-0.0409,-0.041,-0.0439,0,-0.0028,-0.0011,-0.0029,-0.0009,-0.0001,-0.0033,-0.0034,-0.0056,-0.0083,-0.0097,-0.0161,-0.018,-0.0237,-0.0248,-0.0295,-0.0353,-0.0387,-0.0369,-0.0444,-0.0446,-0.0438,-0.0434,-0.0428,-0.0453,-0.0442,-0.0443,-0.0443,0,0.0004,0.0011,0.0039,0.0047,0.0049,0.0055,0.0057,0.0049,0.0011,-0.0012,-0.0055,-0.0098,-0.0154,-0.0203,-0.0305,-0.029,-0.0357,-0.041,-0.0413,-0.0419,-0.0444,-0.0461,-0.0459,-0.0611,-0.0448,-0.0447,-0.0447,0,0.0052,0.0062,0.009,0.0091,0.0091,0.0104,0.0102,0.0079,0.0089,0.0045,0.005,-0.0033,-0.0055,-0.0161,-0.0268,-0.0287,-0.0373,-0.0415,-0.0471,-0.0471,-0.0486,-0.0486,-0.0637,-0.0488,-0.0488,-0.0488,-0.0488,0,0.0093,0.0115,0.0119,0.0136,0.0177,0.0157,0.0194,0.0175,0.0169,0.0195,0.0102,0.0112,-0.0045,-0.0111,-0.0234,-0.0347,-0.0348,-0.046,-0.048,-0.0472,-0.0471,-0.062,-0.0715,-0.0489,-0.0489,-0.0489,-0.0488,0,0.014,0.014,0.0177,0.0192,0.0203,0.0232,0.0262,0.029,0.0268,0.03,0.0296,0.023,0.0146,-0.0005,-0.0158,-0.0279,-0.0496,-0.0446,-0.0414,-0.043,-0.0633,-0.0725,-0.09,-0.0981,-0.0518,-0.0518,-0.0518,0,0.0164,0.019,0.0226,0.0258,0.0269,0.0307,0.0342,0.0338,0.0377,0.0384,0.0416,0.0353,0.0327,0.0109,-0.0113,-0.0316,-0.0484,-0.0453,-0.0501,-0.0638,-0.0757,-0.0836,-0.0897,-0.0507,-0.0507,-0.0506,-0.0506,0,0.0215,0.023,0.0261,0.0324,0.037,0.0419,0.0471,0.0521,0.0531,0.0567,0.0613,0.0598,0.04,0.0213,-0.0068,-0.0232,-0.0578,-0.0458,-0.0621,-0.0775,-0.0851,-0.0938,-0.0483,-0.0506,-0.0506,-0.0506,-0.0506,-0.0506,0.0256,0.0287,0.0332,0.0393,0.0448,0.0523,0.0575,0.0648,0.0727,0.0791,0.0775,0.0779,0.0492,0.0117,-0.012,-0.0552,-0.0578,-0.0692,-0.0794,-0.0861,-0.0946,-0.0473,-0.0507,-0.0507,-0.0507,-0.0507,-0.0507,0,0.0302,0.0336,0.0398,0.0467,0.0534,0.0553,0.0656,0.0716,0.0826,0.0902,0.0945,0.0816,0.0455,0.0061,-0.0496,-0.0817,-0.0972,-0.1014,-0.1145,-0.1194,-0.0787,-0.0792,-0.0863,-0.0863,-0.0863,-0.0863,-0.0862,-0.0862,0.0328,0.0389,0.0416,0.0525,0.0578,0.0664,0.0724,0.0824,0.0901,0.0984,0.1001,0.0987,0.0688,-0.0291,-0.0997,-0.1174,-0.1443,-0.1495,-0.1628,-0.1368,-0.1346,-0.1326,-0.1353,-0.1541,-0.1542,-0.1994,-0.1998,-0.2002]}],[{"header":{"parameterUnit":"m.s-1","parameterCategory":2,"la1":30.2991,"la2":30.254,"lo1":-89.0895,"lo2":-89.0444,"dy":0.0017,"dx":0.0017,"nx":28,"ny":28,"refTime":"2024-10-19T03:00:00:Z","depth":"2","parameterNumber":2,"parameterNumberName":"U-component_of_CURRENTS"},"data":[0,0,0,0,0,0,0,0,0,0,0,0,0,0,0,0,0,0,0,0,0,0,0,0,0,0,0,0,0,0,0,0,0,0,0,0,0,0,0,0,0,0,0,0,0,0,0,0,0,0,0,0,0,0,0,0,0,0,0.2313,0.2313,0,0.2323,0.2323,0.2323,0.2318,0.2318,0.2318,0.2318,0.2301,0.23,0.23,0,0,0,0,0,0,0,0,0,0,0,0,0,0.2294,0.2295,0.2313,0.2313,0.2314,0.2323,0.2323,0.2323,0.2318,0.2318,0.2318,0.2318,0.2301,0.23,0.23,0,0,0,0,0,0,0,0,0,0,0,0,0,0.2301,0.2295,0.2313,0.2314,0.2314,0.2323,0.2323,0.2323,0.2318,0.2318,0.2318,0.2318,0.2301,0.2301,0.23,0.2299,0,0,0.2298,0.2298,0,0,0,0,0,0,0,0,0.2301,0.2302,0.2313,0.2314,0.2314,0.2321,0.2311,0.2315,0.2318,0.2314,0.2318,0.2318,0.2307,0.2306,0.2305,0.2298,0.2297,0.2298,0.2298,0.2298,0.2297,0,0,0,0,0,0,0,0.23,0.2301,0.2315,0.2314,0.2314,0.2316,0.2316,0.2311,0.2309,0.2315,0.2315,0.2319,0.2306,0.2306,0.2305,0.2297,0.2298,0.2298,0.2297,0.2297,0.233,0.2332,0,0,0,0,0,0,0.2303,0.2301,0.2315,0.2315,0.231,0.2316,0.2317,0.2317,0.2309,0.2309,0.2319,0.2319,0.2307,0.2305,0.2304,0.2343,0.2298,0.2297,0.2297,0.2329,0.2331,0.2332,0,0,0,0,0,0,0.2303,0.2304,0.2314,0.231,0.2312,0.2317,0.2317,0.2318,0.2323,0.2314,0.2312,0.2326,0.2307,0.2305,0.2313,0.234,0.2297,0.2296,0.2328,0.233,0.2331,0.2394,0,0,0,0,0,0,0.2302,0.2304,0.2305,0.231,0.2312,0.2328,0.2318,0.2318,0.2327,0.2327,0.2319,0.2317,0.2306,0.2314,0.2312,0.2339,0.2296,0.2326,0.2329,0.2331,0.239,0.2398,0.2404,0,0,0,0,0,0.2301,0.2305,0.2304,0.2306,0.2313,0.2329,0.233,0.2332,0.2327,0.2335,0.2333,0.2317,0.2327,0.2314,0.2312,0.2339,0.2325,0.2328,0.2331,0.2387,0.2396,0.2404,0,0,0,0,0,0,0.2293,0.2305,0.2305,0.231,0.2322,0.2329,0.2336,0.2337,0.2341,0.2341,0.2328,0.2326,0.2345,0.2333,0.2318,0.2356,0.2326,0.2328,0.237,0.2378,0.2385,0.2402,0.2295,0,0,0,0,0,0.2293,0.2301,0.2312,0.2317,0.2325,0.2332,0.2338,0.2342,0.2347,0.2349,0.2344,0.2344,0.2354,0.2358,0.2358,0.2375,0.2385,0.2393,0.2399,0.2405,0.2419,0.2461,0.2473,0.2341,0.2341,0.2341,0,0,0.229,0.2299,0.2302,0.2317,0.2326,0.2345,0.2335,0.2351,0.237,0.2346,0.2366,0.2365,0.2363,0.2387,0.2395,0.238,0.2449,0.2409,0.2414,0.2424,0.2465,0.2478,0.249,0.2343,0.2343,0.2342,0,0,0.2296,0.23,0.2311,0.2326,0.2347,0.2357,0.2364,0.2377,0.2387,0.2404,0.2401,0.2422,0.2418,0.2438,0.2445,0.249,0.2482,0.2484,0.2535,0.2576,0.2587,0.2598,0.2631,0.2644,0.249,0.249,0.249,0,0.2294,0.2308,0.2317,0.2337,0.2353,0.2365,0.2387,0.2403,0.2417,0.2436,0.2417,0.2454,0.245,0.2502,0.252,0.2508,0.2523,0.2503,0.2586,0.2596,0.2606,0.2637,0.265,0.2493,0.2493,0.2493,0.2492,0,0.231,0.2325,0.2336,0.2366,0.2386,0.2407,0.2435,0.2457,0.2467,0.2484,0.2529,0.2531,0.2556,0.2562,0.2553,0.2624,0.2611,0.2589,0.2567,0.2623,0.2652,0.2665,0.2498,0.2497,0.2496,0.2495,0,0,0.2295,0.2339,0.2342,0.2363,0.2404,0.2422,0.2468,0.2514,0.255,0.2569,0.2618,0.2646,0.2652,0.2661,0.2661,0.27,0.2779,0.2677,0.2677,0.2713,0.287,0.2818,0.2826,0.277,0.2772,0.2774,0.2865,0,0.2305,0.2342,0.2366,0.2408,0.2432,0.2468,0.251,0.2556,0.2589,0.2638,0.2671,0.2708,0.269,0.2706,0.2747,0.2769,0.2814,0.2756,0.2807,0.2809,0.2759,0.284,0.2599,0.2656,0.2877,0.2879,0.2881,0,0.231,0.2338,0.2374,0.2435,0.245,0.248,0.2555,0.2594,0.2674,0.2702,0.2757,0.2774,0.2846,0.281,0.2899,0.2862,0.2878,0.2891,0.2894,0.2834,0.2781,0.2634,0.267,0.2901,0.29,0.2898,0.2897,0,0.2288,0.2344,0.2373,0.2391,0.2461,0.2492,0.2536,0.2612,0.2653,0.2746,0.2784,0.2861,0.2902,0.2943,0.2968,0.2942,0.3056,0.3018,0.2992,0.2988,0.2788,0.2762,0.309,0.309,0.309,0.309,0.3089,0,0.2284,0.2309,0.2365,0.2381,0.2421,0.2483,0.2534,0.2594,0.2684,0.2733,0.2812,0.2862,0.2937,0.2998,0.3011,0.3047,0.3092,0.3027,0.3019,0.2802,0.2778,0.2986,0.2973,0.3093,0.3092,0.3091,0.3091,0,0.2249,0.2286,0.2319,0.2388,0.2406,0.2434,0.2512,0.2559,0.2655,0.2725,0.2757,0.2887,0.2967,0.303,0.3108,0.3097,0.3133,0.3129,0.2871,0.2831,0.3028,0.3017,0.3124,0.3124,0.3123,0.3122,0.3122,0,0.2232,0.2246,0.2298,0.231,0.2338,0.2384,0.2418,0.2521,0.2572,0.2719,0.2755,0.2878,0.2937,0.3056,0.3059,0.3097,0.3133,0.289,0.2801,0.3057,0.3038,0.3028,0.3018,0.256,0.2555,0.2551,0.2547,0,0.2198,0.2213,0.2238,0.2257,0.2286,0.2312,0.2374,0.2405,0.2527,0.26,0.2704,0.2772,0.2893,0.2835,0.2898,0.2878,0.2866,0.2809,0.3152,0.2591,0.2532,0.2511,0.2519,0.2511,0.2514,0.2517,0.2519,0.252,0.2163,0.2159,0.2184,0.22,0.2223,0.2234,0.2229,0.2297,0.2352,0.2415,0.2553,0.257,0.2631,0.2609,0.2556,0.252,0.2717,0.2587,0.2596,0.261,0.2531,0.2475,0.2428,0.2431,0.2433,0.2436,0.2438,0,0.2103,0.2114,0.2127,0.2132,0.2115,0.216,0.2192,0.2156,0.2163,0.2238,0.229,0.2148,0.213,0.2183,0.209,0.213,0.2075,0.203,0.1924,0.1964,0.1999,0.1884,0.1611,0.1608,0.1605,0.1603,0,0,0.2072,0.2054,0.2059,0.2012,0.2019,0.1953,0.1945,0.1913,0.1924,0.1883,0.1869,0.1998,0.2116,0.1815,0.1808,0.1688,0.1799,0.1621,0.229,0.2205,0.2235,0.2337,0.2209,0,0,0,0,0]},{"header":{"parameterUnit":"m.s-1","parameterCategory":2,"la1":30.2991,"la2":30.254,"lo1":-89.0895,"lo2":-89.0444,"dy":0.0017,"dx":0.0017,"nx":28,"ny":28,"refTime":"2024-10-19T03:00:00:Z","depth":"2","parameterNumber":3,"parameterNumberName":"V-component_of_CURRENTS"},"data":[0,0,0,0,0,0,0,0,0,0,0,0,0,0,0,0,0,0,0,0,0,0,0,0,0,0,0,0,0,0,0,0,0,0,0,0,0,0,0,0,0,0,0,0,0,0,0,0,0,0,0,0,0,0,0,0,0,0,-0.0166,-0.0166,0,-0.0234,-0.0234,-0.0235,-0.0275,-0.0275,-0.0275,-0.0275,-0.0331,-0.0333,-0.0334,0,0,0,0,0,0,0,0,0,0,0,0,0,-0.0098,-0.0099,-0.0166,-0.0166,-0.0167,-0.0233,-0.0234,-0.0235,-0.0275,-0.0275,-0.0275,-0.0275,-0.0331,-0.0333,-0.0334,0,0,0,0,0,0,0,0,0,0,0,0,0,-0.0143,-0.0099,-0.0165,-0.0194,-0.0198,-0.0233,-0.0234,-0.0236,-0.0275,-0.0275,-0.0275,-0.0275,-0.033,-0.0333,-0.0335,-0.0344,0,0,-0.0341,-0.0342,0,0,0,0,0,0,0,0,-0.014,-0.0145,-0.0189,-0.0192,-0.0196,-0.0245,-0.0231,-0.0271,-0.0275,-0.0246,-0.0275,-0.0275,-0.0301,-0.0306,-0.0319,-0.0347,-0.0349,-0.0341,-0.0342,-0.0343,-0.0344,0,0,0,0,0,0,0,-0.0137,-0.0143,-0.0193,-0.019,-0.0194,-0.0214,-0.022,-0.0239,-0.0272,-0.0248,-0.0251,-0.0258,-0.0303,-0.0317,-0.032,-0.035,-0.0341,-0.0343,-0.0344,-0.0345,-0.0387,-0.0387,0,0,0,0,0,0,-0.0126,-0.014,-0.0191,-0.0195,-0.0168,-0.0215,-0.0222,-0.023,-0.0272,-0.0279,-0.0258,-0.026,-0.0313,-0.0318,-0.0323,-0.0331,-0.0343,-0.0345,-0.0346,-0.0388,-0.0387,-0.0387,0,0,0,0,0,0,-0.0125,-0.013,-0.0188,-0.0168,-0.0177,-0.0215,-0.0224,-0.0231,-0.0244,-0.0279,-0.0286,-0.0263,-0.0313,-0.032,-0.0335,-0.0334,-0.0346,-0.0348,-0.0388,-0.0388,-0.0387,-0.0351,0,0,0,0,0,0,-0.0122,-0.0129,-0.013,-0.0168,-0.0178,-0.0201,-0.0224,-0.0232,-0.0248,-0.0251,-0.0286,-0.0292,-0.0314,-0.0332,-0.0337,-0.0337,-0.035,-0.0388,-0.0388,-0.0387,-0.0353,-0.035,-0.0348,0,0,0,0,0,-0.012,-0.0118,-0.013,-0.0136,-0.0178,-0.0201,-0.0208,-0.0236,-0.0247,-0.0249,-0.0273,-0.029,-0.0334,-0.0333,-0.034,-0.034,-0.0388,-0.0388,-0.0387,-0.0354,-0.0351,-0.0348,0,0,0,0,0,0,-0.009,-0.0123,-0.0137,-0.0146,-0.0168,-0.0207,-0.0212,-0.0232,-0.0253,-0.0255,-0.0288,-0.0296,-0.0309,-0.0328,-0.0326,-0.0351,-0.0364,-0.0365,-0.0337,-0.0334,-0.0331,-0.0318,-0.0351,0,0,0,0,0,-0.0083,-0.009,-0.0124,-0.013,-0.0139,-0.0175,-0.0187,-0.0206,-0.0231,-0.0241,-0.0267,-0.0293,-0.0314,-0.0325,-0.0346,-0.0358,-0.0376,-0.0363,-0.036,-0.0358,-0.0351,-0.0382,-0.0382,-0.0386,-0.0386,-0.0386,0,0,-0.0073,-0.0092,-0.0097,-0.0124,-0.0144,-0.015,-0.0182,-0.0197,-0.0202,-0.0243,-0.0255,-0.0283,-0.0314,-0.033,-0.0338,-0.0345,-0.0365,-0.0358,-0.0355,-0.035,-0.0382,-0.0382,-0.0381,-0.0386,-0.0386,-0.0386,0,0,-0.0052,-0.0073,-0.0069,-0.0084,-0.0109,-0.013,-0.0131,-0.0167,-0.0182,-0.0199,-0.0229,-0.0254,-0.0286,-0.0311,-0.0327,-0.0322,-0.0349,-0.033,-0.0308,-0.0338,-0.0338,-0.0338,-0.0352,-0.0354,-0.033,-0.033,-0.033,0,-0.0038,-0.0041,-0.0071,-0.007,-0.0076,-0.0116,-0.011,-0.0133,-0.0169,-0.0176,-0.0194,-0.0247,-0.0277,-0.0298,-0.0301,-0.0316,-0.0332,-0.0317,-0.0335,-0.0335,-0.0336,-0.035,-0.0353,-0.0328,-0.0328,-0.0328,-0.0329,0,-0.0015,-0.0017,-0.0014,-0.0026,-0.0035,-0.0037,-0.0068,-0.0079,-0.0104,-0.0129,-0.0156,-0.0204,-0.0234,-0.0252,-0.0277,-0.0297,-0.0306,-0.0327,-0.0341,-0.0333,-0.0349,-0.0352,-0.0325,-0.0326,-0.0327,-0.0327,0,0,0.0015,0.0004,0.0006,0.0015,-0.001,-0.0011,-0.0019,-0.0035,-0.0032,-0.0082,-0.0086,-0.0143,-0.0175,-0.0195,-0.0236,-0.0269,-0.0293,-0.0298,-0.0301,-0.0308,-0.0349,-0.0343,-0.0346,-0.032,-0.032,-0.0321,-0.0355,0,0.0043,0.0062,0.0046,0.0069,0.0078,0.0047,0.0049,0.0029,0.0003,-0.0012,-0.0075,-0.0094,-0.0152,-0.0165,-0.021,-0.0266,-0.0301,-0.0281,-0.0358,-0.036,-0.0353,-0.0349,-0.0322,-0.035,-0.0358,-0.0358,-0.0359,0,0.0074,0.0083,0.0112,0.0124,0.0127,0.0134,0.0137,0.0131,0.0095,0.0072,0.0028,-0.0016,-0.0071,-0.0121,-0.0221,-0.0205,-0.0273,-0.0325,-0.0328,-0.0336,-0.036,-0.0361,-0.0355,-0.0364,-0.0364,-0.0363,-0.0363,0,0.0119,0.0133,0.0162,0.0164,0.0168,0.018,0.0179,0.0159,0.017,0.0126,0.0129,0.0047,0.0024,-0.008,-0.0186,-0.0205,-0.0289,-0.0329,-0.0388,-0.0388,-0.0386,-0.0385,-0.0403,-0.0403,-0.0403,-0.0403,-0.0403,0,0.0158,0.0182,0.0187,0.0205,0.0246,0.023,0.0266,0.0249,0.0243,0.0269,0.0178,0.0186,0.0032,-0.0033,-0.0154,-0.0266,-0.0265,-0.0378,-0.0398,-0.0372,-0.0369,-0.0401,-0.04,-0.0404,-0.0404,-0.0403,-0.0403,0,0.0201,0.0203,0.0241,0.0259,0.027,0.0299,0.033,0.0358,0.0337,0.0368,0.0362,0.0298,0.0214,0.0066,-0.0084,-0.0201,-0.0324,-0.0367,-0.0316,-0.033,-0.0413,-0.041,-0.0442,-0.0443,-0.0443,-0.0443,-0.0443,0,0.0224,0.0249,0.0287,0.0318,0.033,0.0368,0.0402,0.0401,0.044,0.0448,0.048,0.0415,0.0385,0.0171,-0.0042,-0.0241,-0.029,-0.0358,-0.0401,-0.0402,-0.0418,-0.0415,-0.0412,-0.0383,-0.0382,-0.0382,-0.0382,0,0.0272,0.0286,0.0318,0.0379,0.0425,0.0476,0.0527,0.0576,0.0589,0.0622,0.0665,0.0646,0.0453,0.0268,-0.0007,-0.0152,-0.0328,-0.0357,-0.0372,-0.0373,-0.0348,-0.0363,-0.0362,-0.0379,-0.0379,-0.0379,-0.0379,-0.0379,0.0309,0.0339,0.0384,0.0444,0.0499,0.0573,0.0624,0.0695,0.0771,0.0822,0.0807,0.0773,0.0565,0.0221,-0.0012,-0.0279,-0.0285,-0.0395,-0.0395,-0.0396,-0.0379,-0.0355,-0.0383,-0.0384,-0.0384,-0.0384,-0.0384,0,0.0355,0.0385,0.0445,0.0514,0.0583,0.06,0.0703,0.0759,0.0861,0.09,0.0927,0.0741,0.0538,0.0281,-0.0099,-0.032,-0.0351,-0.0401,-0.039,-0.0391,-0.0392,-0.0376,-0.0379,-0.038,-0.0381,-0.0381,0,0,0.0379,0.0439,0.0466,0.0574,0.0623,0.0712,0.0771,0.0857,0.0906,0.0952,0.0932,0.0894,0.0602,0.0336,0.0043,-0.0175,-0.0244,-0.0225,-0.0206,-0.016,-0.0159,-0.0364,-0.0336,0,0,0,0,0]}],[{"header":{"parameterUnit":"m.s-1","parameterCategory":2,"la1":30.2991,"la2":30.254,"lo1":-89.0895,"lo2":-89.0444,"dy":0.0017,"dx":0.0017,"nx":28,"ny":28,"refTime":"2024-10-19T03:00:00:Z","depth":"4","parameterNumber":2,"parameterNumberName":"U-component_of_CURRENTS"},"data":[0,0,0,0,0,0,0,0,0,0,0,0,0,0,0,0,0,0,0,0,0,0,0,0,0,0,0,0,0,0,0,0,0,0,0,0,0,0,0,0,0,0,0,0,0,0,0,0,0,0,0,0,0,0,0,0,0,0,0.1507,0.1507,0,0.1556,0.1556,0.1557,0.1604,0.1605,0.1606,0.1607,0.1668,0.1669,0.167,0,0,0,0,0,0,0,0,0,0,0,0,0,0.1445,0.1445,0.1507,0.1507,0.1508,0.1556,0.1556,0.1557,0.1604,0.1605,0.1606,0.1607,0.1668,0.1669,0.167,0,0,0,0,0,0,0,0,0,0,0,0,0,0.1479,0.1446,0.1506,0.1539,0.1542,0.1556,0.1556,0.1557,0.1604,0.1605,0.1606,0.1607,0.1668,0.1669,0.167,0.1656,0,0,0.1675,0.1675,0,0,0,0,0,0,0,0,0.1477,0.1481,0.1533,0.1536,0.154,0.1576,0.1557,0.1591,0.1604,0.1579,0.1607,0.1608,0.1639,0.1643,0.1647,0.1659,0.1662,0.1675,0.1676,0.1676,0.1677,0,0,0,0,0,0,0,0.1475,0.1479,0.1525,0.1534,0.1538,0.1547,0.1554,0.1563,0.1601,0.1581,0.1585,0.1593,0.1641,0.1646,0.1649,0.1663,0.1675,0.1676,0.1677,0.1677,0.1768,0.1769,0,0,0,0,0,0,0.1471,0.1477,0.1523,0.1526,0.1512,0.1548,0.1555,0.1563,0.1601,0.1608,0.1592,0.1595,0.1643,0.1647,0.1651,0.1725,0.1676,0.1678,0.1678,0.1766,0.1768,0.177,0,0,0,0,0,0,0.1469,0.1474,0.1521,0.1504,0.1511,0.1548,0.1556,0.1563,0.1602,0.1609,0.1616,0.1629,0.1644,0.1649,0.1693,0.1724,0.1678,0.1679,0.1765,0.1767,0.1769,0.1815,0,0,0,0,0,0,0.1467,0.1473,0.1493,0.1504,0.1512,0.1552,0.1556,0.1563,0.1604,0.1609,0.1642,0.1647,0.1645,0.1691,0.1694,0.1725,0.1681,0.1763,0.1766,0.1768,0.1812,0.1819,0.1825,0,0,0,0,0,0.1465,0.1482,0.1494,0.1501,0.1533,0.1553,0.1558,0.1587,0.1605,0.1626,0.1653,0.1648,0.1712,0.1693,0.1697,0.1729,0.1761,0.1765,0.1768,0.1809,0.1817,0.1825,0,0,0,0,0,0,0.1467,0.1489,0.1502,0.1527,0.155,0.1562,0.159,0.1605,0.1642,0.166,0.1664,0.1671,0.1721,0.172,0.1699,0.1765,0.1737,0.1742,0.1767,0.1775,0.1782,0.1777,0.1682,0,0,0,0,0,0.1475,0.1497,0.1515,0.154,0.1555,0.1579,0.1598,0.1617,0.1642,0.1662,0.1684,0.171,0.1731,0.1751,0.1768,0.1802,0.1805,0.1827,0.1833,0.1839,0.1839,0.1871,0.188,0.1782,0.1782,0.1781,0,0,0.1483,0.1499,0.1514,0.1543,0.1566,0.1588,0.1594,0.1634,0.1659,0.1661,0.1716,0.1735,0.1746,0.1786,0.1809,0.1794,0.1872,0.1843,0.1848,0.1845,0.1875,0.1885,0.1893,0.1784,0.1783,0.1783,0,0,0.1498,0.1527,0.1548,0.157,0.161,0.1621,0.164,0.1673,0.1701,0.1745,0.1756,0.1796,0.1832,0.1844,0.1853,0.1906,0.1905,0.192,0.1952,0.1983,0.1991,0.1998,0.2025,0.2034,0.1925,0.1925,0.1925,0,0.1511,0.1535,0.1559,0.1583,0.1605,0.1639,0.1663,0.1691,0.1737,0.1761,0.1775,0.1841,0.1855,0.1893,0.1916,0.192,0.1939,0.1918,0.1991,0.1998,0.2004,0.203,0.204,0.1927,0.1927,0.1927,0.1926,0,0.1529,0.1562,0.158,0.1619,0.1644,0.1677,0.1709,0.1751,0.179,0.1814,0.1877,0.1901,0.194,0.1954,0.1953,0.2008,0.2007,0.1994,0.1967,0.2017,0.2041,0.205,0.1931,0.193,0.1929,0.1929,0,0,0.1516,0.158,0.159,0.1616,0.1669,0.1687,0.1738,0.1783,0.1824,0.1878,0.1927,0.1973,0.2,0.2011,0.2023,0.205,0.2116,0.2049,0.205,0.207,0.2194,0.2071,0.2068,0.2121,0.2123,0.2124,0.2196,0,0.1527,0.1573,0.1602,0.1653,0.1677,0.1724,0.1765,0.1814,0.1863,0.1923,0.1962,0.2018,0.2017,0.2053,0.2081,0.2108,0.2141,0.2098,0.2148,0.2149,0.2028,0.2074,0.2129,0.2203,0.2205,0.2206,0.2208,0,0.1525,0.1559,0.1607,0.1671,0.1688,0.1729,0.1801,0.1844,0.1924,0.1964,0.2025,0.2063,0.2125,0.2115,0.2188,0.2166,0.2189,0.2202,0.2205,0.2075,0.2041,0.2142,0.2223,0.2222,0.2221,0.222,0.2219,0,0.1486,0.1557,0.1597,0.1621,0.1698,0.174,0.1791,0.1867,0.1909,0.2005,0.2051,0.212,0.2176,0.2211,0.2254,0.2234,0.2325,0.2295,0.2205,0.2197,0.2265,0.2257,0.2346,0.2346,0.2346,0.2346,0.2346,0,0.1463,0.15,0.1595,0.1617,0.1673,0.1738,0.1804,0.1863,0.1952,0.2,0.2083,0.2126,0.2207,0.2266,0.2282,0.2273,0.2354,0.2215,0.2206,0.2285,0.2278,0.2272,0.2263,0.2348,0.2348,0.2347,0.2347,0,0.1403,0.1468,0.152,0.1621,0.1655,0.17,0.1805,0.1848,0.1948,0.2015,0.2053,0.216,0.2229,0.2294,0.236,0.2302,0.2308,0.2289,0.2387,0.2382,0.2152,0.2144,0.2176,0.2173,0.2169,0.2167,0.2164,0,0.1372,0.1397,0.1509,0.1545,0.1598,0.1675,0.1722,0.183,0.1871,0.2012,0.2033,0.2151,0.2205,0.2196,0.2275,0.2298,0.2275,0.2264,0.2181,0.2146,0.2135,0.2132,0.2129,0.2159,0.2159,0.2158,0.2157,0,0.1309,0.1367,0.1411,0.1484,0.1547,0.1595,0.1678,0.1693,0.1813,0.1924,0.1957,0.1994,0.207,0.211,0.2157,0.2165,0.2254,0.2229,0.2235,0.2157,0.2125,0.2117,0.2118,0.2146,0.2147,0.2148,0.2149,0,0.1266,0.1281,0.1352,0.1403,0.1476,0.1496,0.1546,0.1593,0.1644,0.1797,0.1807,0.1928,0.2042,0.2044,0.2084,0.2087,0.2046,0.1968,0.1986,0.1999,0.1908,0.184,0.1768,0,0,0,0,0,0.1212,0.122,0.1263,0.1309,0.1377,0.1416,0.1505,0.1557,0.1674,0.1651,0.172,0.1777,0.1825,0.1893,0.1862,0.2019,0.2064,0.1974,0.1985,0.2084,0.2097,0.2006,0,0,0,0,0,0,0.1174,0.1213,0.1226,0.1219,0.1235,0.1288,0.1338,0.1418,0.1407,0.1537,0.1572,0.1676,0.1752,0.1826,0.183,0.1852,0.1823,0.2058,0.2054,0.2077,0.2088,0.2099,0.201,0,0,0,0,0]},{"header":{"parameterUnit":"m.s-1","parameterCategory":2,"la1":30.2991,"la2":30.254,"lo1":-89.0895,"lo2":-89.0444,"dy":0.0017,"dx":0.0017,"nx":28,"ny":28,"refTime":"2024-10-19T03:00:00:Z","depth":"4","parameterNumber":3,"parameterNumberName":"V-component_of_CURRENTS"},"data":[0,0,0,0,0,0,0,0,0,0,0,0,0,0,0,0,0,0,0,0,0,0,0,0,0,0,0,0,0,0,0,0,0,0,0,0,0,0,0,0,0,0,0,0,0,0,0,0,0,0,0,0,0,0,0,0,0,0,0.003,0.003,0,-0.0019,-0.002,-0.0021,-0.0053,-0.0053,-0.0053,-0.0053,-0.0103,-0.0104,-0.0105,0,0,0,0,0,0,0,0,0,0,0,0,0,0.0078,0.0078,0.0031,0.003,0.0029,-0.0019,-0.002,-0.0021,-0.0053,-0.0053,-0.0053,-0.0053,-0.0103,-0.0104,-0.0106,0,0,0,0,0,0,0,0,0,0,0,0,0,0.0046,0.0077,0.0031,0.0008,0.0005,-0.0019,-0.002,-0.0021,-0.0052,-0.0053,-0.0053,-0.0053,-0.0102,-0.0104,-0.0106,-0.0112,0,0,-0.0111,-0.0112,0,0,0,0,0,0,0,0,0.0048,0.0044,0.0012,0.0009,0.0006,-0.003,-0.0022,-0.0051,-0.0052,-0.0031,-0.0053,-0.0053,-0.0078,-0.0082,-0.0091,-0.0114,-0.0116,-0.0111,-0.0112,-0.0113,-0.0114,0,0,0,0,0,0,0,0.005,0.0046,0.001,0.0011,0.0008,-0.0007,-0.0012,-0.0028,-0.0053,-0.0033,-0.0035,-0.004,-0.008,-0.0089,-0.0093,-0.0117,-0.0111,-0.0113,-0.0114,-0.0115,-0.0147,-0.0147,0,0,0,0,0,0,0.0058,0.0048,0.0012,0.0009,0.0027,-0.0007,-0.0013,-0.0018,-0.0053,-0.0058,-0.004,-0.0041,-0.0086,-0.0091,-0.0095,-0.009,-0.0113,-0.0115,-0.0116,-0.0147,-0.0147,-0.0147,0,0,0,0,0,0,0.0059,0.0055,0.0014,0.0028,0.0021,-0.0008,-0.0014,-0.0019,-0.0029,-0.0058,-0.0064,-0.0045,-0.0087,-0.0092,-0.0105,-0.0093,-0.0116,-0.0117,-0.0147,-0.0147,-0.0147,-0.009,0,0,0,0,0,0,0.0061,0.0056,0.0056,0.0028,0.0021,0.0004,-0.0014,-0.002,-0.0032,-0.0035,-0.0064,-0.0069,-0.0087,-0.0102,-0.0107,-0.0096,-0.0119,-0.0148,-0.0147,-0.0147,-0.0092,-0.0087,-0.0084,0,0,0,0,0,0.0063,0.0065,0.0056,0.0052,0.0022,0.0005,-0.0,-0.0022,-0.0032,-0.0033,-0.0052,-0.0068,-0.0103,-0.0103,-0.0109,-0.0098,-0.0148,-0.0147,-0.0147,-0.0094,-0.0088,-0.0084,0,0,0,0,0,0,0.0084,0.0061,0.0051,0.0045,0.0029,-0.0,-0.0003,-0.0019,-0.0036,-0.0038,-0.0066,-0.0072,-0.008,-0.0098,-0.0098,-0.0107,-0.0128,-0.0129,-0.0086,-0.0081,-0.0077,-0.0058,-0.012,0,0,0,0,0,0.009,0.0087,0.0061,0.0058,0.0051,0.0025,0.0015,0.0,-0.0019,-0.0028,-0.0049,-0.0069,-0.0082,-0.0089,-0.0107,-0.011,-0.0132,-0.0108,-0.0104,-0.01,-0.009,-0.0112,-0.0109,-0.0145,-0.0145,-0.0145,0,0,0.0098,0.0085,0.0083,0.0063,0.0048,0.0047,0.0018,0.0007,0.001,-0.003,-0.0033,-0.0058,-0.0081,-0.0085,-0.009,-0.0098,-0.0103,-0.01,-0.0096,-0.0087,-0.0111,-0.0108,-0.0105,-0.0145,-0.0145,-0.0145,0,0,0.0116,0.0101,0.0105,0.0095,0.0077,0.0063,0.0063,0.0035,0.0026,0.0016,-0.0008,-0.0021,-0.0049,-0.0057,-0.0065,-0.005,-0.0083,-0.0061,-0.0021,-0.0043,-0.004,-0.0037,-0.0065,-0.0065,-0.0055,-0.0055,-0.0055,0,0.0127,0.0128,0.0105,0.0107,0.0107,0.0075,0.0085,0.0073,0.0045,0.0045,0.0023,-0.0009,-0.0031,-0.0024,-0.002,-0.0038,-0.0062,-0.0035,-0.0036,-0.0034,-0.0033,-0.0062,-0.0063,-0.0053,-0.0053,-0.0053,-0.0053,0,0.0146,0.015,0.0152,0.015,0.0147,0.0148,0.0133,0.0128,0.0111,0.0096,0.0088,0.0054,0.0037,0.0027,0.0009,0.0013,-0.0011,-0.003,-0.0045,-0.0025,-0.0058,-0.006,-0.0048,-0.0049,-0.005,-0.0051,0,0,0.0168,0.0167,0.017,0.0182,0.0171,0.0174,0.0184,0.0185,0.0196,0.0163,0.0172,0.0145,0.0118,0.0107,0.0079,0.0063,0.0049,0.0026,0.0023,0.0005,-0.0007,-0.0025,-0.0029,0.0027,0.0027,0.0027,-0.0035,0,0.0192,0.0213,0.0207,0.0237,0.0249,0.0235,0.0252,0.0249,0.0235,0.0233,0.0201,0.0191,0.0151,0.0142,0.0121,0.0067,0.0046,0.0067,-0.0029,-0.0032,-0.0044,-0.0031,0.0027,-0.0037,-0.0038,-0.0038,-0.0039,0,0.0216,0.0229,0.026,0.0289,0.0294,0.0308,0.0332,0.034,0.0331,0.0317,0.0298,0.0264,0.0241,0.0197,0.0123,0.0136,0.0072,0.0027,0.0023,-0.0012,-0.0053,-0.0061,-0.0043,-0.0043,-0.0043,-0.0042,-0.0042,0,0.0246,0.0271,0.0302,0.0308,0.0329,0.0349,0.0362,0.0365,0.0383,0.0367,0.0368,0.0326,0.0303,0.0228,0.0129,0.0124,0.0037,0.0016,-0.006,-0.0063,-0.0053,-0.0055,-0.0037,-0.0037,-0.0037,-0.0037,-0.0037,0,0.0274,0.0301,0.0319,0.0335,0.0382,0.0384,0.0426,0.0429,0.044,0.0463,0.0411,0.041,0.0308,0.0244,0.0149,0.0038,0.0048,-0.0047,-0.0075,-0.003,-0.0028,-0.0055,-0.0057,-0.0039,-0.0039,-0.0038,-0.0038,0,0.0299,0.0308,0.0348,0.0381,0.0396,0.0428,0.0471,0.05,0.0498,0.0524,0.0523,0.0474,0.0384,0.0275,0.0149,0.0067,-0.0038,-0.0084,-0.0026,-0.0051,-0.013,-0.0127,-0.0166,-0.0167,-0.0168,-0.0168,-0.0169,0,0.0311,0.0333,0.0381,0.0409,0.0425,0.0468,0.0504,0.0525,0.0554,0.0561,0.0577,0.0508,0.0454,0.0271,0.0145,-0.0035,-0.0066,-0.0124,-0.0123,-0.0117,-0.0141,-0.0137,-0.0133,-0.017,-0.0171,-0.0171,-0.0171,0,0.0338,0.0354,0.0385,0.044,0.0484,0.0533,0.058,0.0608,0.0631,0.0636,0.0618,0.0524,0.0422,0.0274,0.0131,0.0001,-0.0084,-0.0134,-0.0133,-0.0132,-0.0123,-0.0145,-0.0141,-0.0174,-0.0174,-0.0173,-0.0173,0,0.0357,0.038,0.042,0.0468,0.0525,0.0575,0.0601,0.0632,0.066,0.0666,0.0657,0.0545,0.0485,0.0292,0.0162,0.0031,-0.0006,-0.005,-0.0054,-0.0052,-0.0005,0.0024,0.0002,0,0,0,0,0,0.0372,0.0396,0.0444,0.0496,0.0552,0.0583,0.0644,0.0664,0.0689,0.0684,0.0672,0.0574,0.0385,0.0308,0.0175,0.0132,-0.0036,-0.0031,-0.0091,-0.0191,-0.0188,-0.0153,0,0,0,0,0,0,0.038,0.0423,0.0442,0.0508,0.0544,0.0608,0.0646,0.0667,0.0662,0.0668,0.0574,0.0531,0.035,0.0459,0.0168,0.0129,0.007,-0.0115,-0.0119,-0.0193,-0.019,-0.0187,-0.0151,0,0,0,0,0]}]]